Location: Ostrava
(49.8330°N, 18.2830°E)
Time: 00:17:39
(UTC+02:00)

Cosmos 2221 - Visible Passes

Search period start: 29 July 2016 00:00
Search period end: 08 August 2016 00:00
Orbit: 594 x 617 km, 82.5° (Epoch: 27 July)

Date Brightness Start Highest point End Pass type
(mag) Time Alt. Az. Time Alt. Az. Time Alt. Az.
29 Jul 5.4 03:42:45 10° ESE 03:44:50 13° E 03:46:57 10° NE visible
30 Jul 5.0 03:54:37 10° SE 03:57:50 21° E 04:01:04 10° NE visible
31 Jul 4.2 04:07:03 10° SSE 04:10:52 32° E 04:14:45 10° NNE visible
01 Aug 3.3 04:19:50 10° S 04:23:59 52° E 04:28:12 10° NNE visible
02 Aug 2.6 04:32:52 10° S 04:37:10 85° E 04:41:31 10° N visible
03 Aug 5.1 03:10:44 10° ESE 03:13:19 16° E 03:15:54 10° NE visible
04 Aug 4.6 03:22:50 10° SE 03:26:19 24° E 03:29:49 10° NE visible
05 Aug 3.8 03:35:24 10° SSE 03:39:23 38° E 03:43:24 10° NNE visible
06 Aug 3.0 03:48:16 10° S 03:52:31 61° E 03:56:49 10° NNE visible
07 Aug 5.3 02:27:18 10° ESE 02:28:49 12° E 02:30:21 10° ENE visible
07 Aug 2.5 04:01:43 12° SSW 04:05:42 83° W 04:10:05 10° N visible
